CW3518 Weather Reports


time (UTC)temp
F
wind
direction
speed
knots
gust
knots
rain 1hr
in
rain 24hr
in
rain mn
in
humidity
%
barometer
mb
20260510085024 69 59 10.4 15.6 0.00 0.00 0.00 75 1012.5
20260510084526 71 43 13.0 20.9 0.00 0.00 0.00 73 1012.5
20260510084027 71 62 14.8 20.9 0.00 0.00 0.00 72 1012.0
20260510083526 71 68 17.4 20.0 0.00 0.00 0.00 75 1012.0
20260510083027 71 72 15.6 20.9 0.00 0.00 0.00 75 1011.7
20260510082026 71 69 13.0 21.7 0.00 0.00 0.00 77 1012.3
20260510081527 71 65 18.2 23.5 0.00 0.00 0.00 78 1012.5
20260510080528 70 12 13.0 14.8 0.00 0.00 0.00 81 1013.1
20260510080026 70 4 10.4 15.6 0.00 0.00 0.00 80 1013.3
20260510075026 71 9 14.8 20.9 0.00 0.00 0.00 81 1013.4
20260510074527 71 27 13.9 26.1 0.00 0.00 0.00 82 1012.9
20260510074028 71 52 13.9 28.7 0.00 0.00 0.00 81 1012.6
20260510073028 72 10 14.8 18.2 0.00 0.00 0.00 85 1013.1
20260510072527 72 10 12.2 13.9 0.00 0.00 0.00 84 1012.6
20260510072029 72 25 8.7 8.7 0.00 0.00 0.00 82 1011.8
20260510071528 73 59 5.2 8.7 0.00 0.00 0.00 81 1011.3
20260510071027 73 76 6.1 8.7 0.00 0.00 0.00 80 1011.0
20260510070528 73 81 7.8 9.6 0.00 0.00 0.00 79 1010.9
20260510070027 73 88 8.7 11.3 0.00 0.00 0.00 79 1010.8
20260510065527 74 98 9.6 11.3 0.00 0.00 0.00 78 1010.6
20260510065026 74 87 7.8 11.3 0.00 0.00 0.00 77 1010.6
20260510064526 74 102 9.6 11.3 0.00 0.00 0.00 76 1010.6
20260510064026 74 82 9.6 12.2 0.00 0.00 0.00 75 1010.4
20260510063526 75 79 7.8 12.2 0.00 0.00 0.00 74 1010.4
20260510062526 75 83 9.6 14.8 0.00 0.00 0.00 72 1010.6
20260510062028 75 85 13.0 14.8 0.00 0.00 0.00 71 1010.5
20260510061528 75 85 14.8 14.8 0.00 0.00 0.00 71 1010.4
20260510061027 76 0 0.0 21.7 0.00 0.00 0.00 70 1010.5
20260510060527 76 0 0.0 21.7 0.00 0.00 0.00 68 1010.5
20260510060027 76 85 17.4 19.1 0.00 0.00 0.00 68 1010.6
20260510055527 77 85 13.0 22.6 0.00 0.00 0.00 67 1010.8
20260510055026 77 87 12.2 26.1 0.00 0.00 0.00 67 1011.1
20260510054527 77 81 13.9 27.8 0.00 0.00 0.00 67 1011.8
20260510053527 76 37 16.5 20.9 0.00 0.00 0.00 69 1012.7
20260510052527 74 25 17.4 22.6 0.00 0.00 0.00 74 1012.3
20260510052027 72 20 12.2 24.3 0.00 0.00 0.00 81 1012.2
20260510051528 71 3 20.9 24.3 0.00 0.00 0.00 82 1011.7
20260510051026 73 357 11.3 12.2 0.00 0.00 0.00 78 1010.8
20260510050529 73 85 5.2 8.7 0.00 0.00 0.00 77 1009.7
20260510050027 73 124 7.8 8.7 0.00 0.00 0.00 77 1009.2
20260510045527 73 120 7.0 8.7 0.00 0.00 0.00 76 1009.2
20260510045027 73 118 8.7 8.7 0.00 0.00 0.00 76 1009.1
20260510044527 73 124 6.1 8.7 0.00 0.00 0.00 75 1009.1
20260510044027 73 110 7.8 8.7 0.00 0.00 0.00 76 1009.1
20260510043528 73 109 7.8 9.6 0.00 0.00 0.00 76 1009.0
20260510042525 73 103 8.7 9.6 0.00 0.00 0.00 77 1008.8
20260510042026 73 120 8.7 9.6 0.00 0.00 0.00 77 1008.6
20260510041526 73 114 9.6 9.6 0.00 0.00 0.00 77 1008.6
20260510040528 73 119 8.7 10.4 0.00 0.00 0.00 77 1008.7
20260510035527 73 118 8.7 11.3 0.00 0.00 0.00 76 1008.8
20260510035027 73 123 8.7 11.3 0.00 0.00 0.00 75 1008.8
20260510034525 73 121 8.7 8.7 0.00 0.00 0.00 75 1008.9
20260510034025 73 130 7.0 9.6 0.00 0.00 0.00 75 1009.0
20260510033526 74 121 7.8 9.6 0.00 0.00 0.00 74 1009.0
20260510033028 74 124 8.7 10.4 0.00 0.00 0.00 73 1009.1
20260510032526 74 113 7.8 11.3 0.00 0.00 0.00 73 1009.1
20260510032028 74 116 9.6 12.2 0.00 0.00 0.00 73 1009.1
20260510031025 74 109 8.7 13.9 0.00 0.00 0.00 72 1008.9
20260510030525 74 114 9.6 12.2 0.00 0.00 0.00 73 1009.0
20260510030025 74 109 9.6 12.2 0.00 0.00 0.00 73 1009.0
20260510025525 75 107 8.7 11.3 0.00 0.00 0.00 72 1009.1
20260510025027 75 109 8.7 10.4 0.00 0.00 0.00 71 1009.1
20260510024526 75 111 8.7 9.6 0.00 0.00 0.00 71 1009.2
20260510024025 75 102 9.6 11.3 0.00 0.00 0.00 71 1009.2
20260510022525 75 97 7.0 10.4 0.00 0.00 0.00 74 1009.1
20260510022025 75 100 8.7 10.4 0.00 0.00 0.00 75 1009.0
20260510021025 76 101 8.7 9.6 0.00 0.00 0.00 75 1009.0
20260510020525 76 100 9.6 9.6 0.00 0.00 0.00 74 1008.9
20260510020025 76 100 8.7 9.6 0.00 0.00 0.00 74 1008.9
20260510015525 77 92 7.8 9.6 0.00 0.00 0.00 73 1008.9
20260510015025 77 92 8.7 9.6 0.00 0.00 0.00 73 1008.8
20260510014525 77 93 8.7 9.6 0.00 0.00 0.00 72 1008.8
20260510014025 78 91 7.8 9.6 0.00 0.00 0.00 72 1008.9
20260510013525 78 97 8.7 9.6 0.00 0.00 0.00 71 1008.8
20260510013026 78 109 8.7 8.7 0.00 0.00 0.00 71 1008.7
20260510012525 78 93 7.0 8.7 0.00 0.00 0.00 71 1008.7
20260510012025 79 90 7.0 8.7 0.00 0.00 0.00 71 1008.6
20260510011526 79 101 6.1 9.6 0.00 0.00 0.00 70 1008.5
20260510011027 80 112 7.8 9.6 0.00 0.00 0.00 69 1008.4
20260510010527 80 98 7.0 7.8 0.00 0.00 0.00 68 1008.3
20260510010027 80 104 7.0 7.8 0.00 0.00 0.00 68 1008.3
20260510005527 80 98 5.2 7.8 0.00 0.00 0.00 67 1008.2
20260510005027 81 99 7.8 11.3 0.00 0.00 0.00 66 1008.2
20260510004527 82 109 7.0 11.3 0.00 0.00 0.00 65 1008.1
20260510004027 82 114 11.3 11.3 0.00 0.00 0.00 63 1008.0
20260510003528 83 97 7.8 7.8 0.00 0.00 0.00 58 1008.1
20260510003027 83 111 4.3 6.1 0.00 0.00 0.00 54 1008.1
20260510002525 83 97 5.2 7.8 0.00 0.00 0.00 52 1008.0
20260510002028 84 97 6.1 9.6 0.00 0.00 0.00 51 1008.0
20260510001527 84 102 6.1 9.6 0.00 0.00 0.00 50 1008.0
20260510001028 84 94 5.2 7.8 0.00 0.00 0.00 50 1008.1
20260510000527 84 94 7.0 7.8 0.00 0.00 0.00 49 1008.1
20260510000028 84 85 6.1 9.6 0.00 0.00 0.00 49 1008.1
20260509235527 84 100 7.0 9.6 0.00 0.00 0.00 48 1008.1
20260509235025 85 89 5.2 9.6 0.00 0.00 0.00 48 1008.1
20260509234025 85 102 6.1 7.8 0.00 0.00 0.00 46 1008.2
20260509233525 85 92 6.1 8.7 0.00 0.00 0.00 47 1008.3
20260509233025 85 92 7.0 10.4 0.00 0.00 0.00 47 1008.3
20260509232525 85 77 7.8 10.4 0.00 0.00 0.00 46 1008.3
20260509231525 85 88 7.0 8.7 0.00 0.00 0.00 44 1008.4
20260509231025 86 104 6.1 7.8 0.00 0.00 0.00 46 1008.4
20260509230525 86 148 6.1 7.8 0.00 0.00 0.00 43 1008.4
20260509230025 86 92 4.3 8.7 0.00 0.00 0.00 46 1008.5
20260509225525 86 106 7.8 8.7 0.00 0.00 0.00 46 1008.5
20260509225025 85 88 7.0 8.7 0.00 0.00 0.00 46 1008.5
20260509224525 86 86 7.8 7.8 0.00 0.00 0.00 45 1008.5
20260509224026 85 131 5.2 7.8 0.00 0.00 0.00 45 1008.4
20260509223525 85 95 7.8 7.8 0.00 0.00 0.00 45 1008.5
20260509223027 85 100 5.2 8.7 0.00 0.00 0.00 47 1008.5
20260509222529 85 121 4.3 10.4 0.00 0.00 0.00 45 1008.4
20260509222025 85 87 7.8 12.2 0.00 0.00 0.00 46 1008.4
20260509221525 85 89 10.4 13.0 0.00 0.00 0.00 47 1008.4
20260509221025 85 93 4.3 13.0 0.00 0.00 0.00 47 1008.5
20260509220025 85 77 8.7 10.4 0.00 0.00 0.00 47 1008.5
20260509215525 85 70 7.8 12.2 0.00 0.00 0.00 48 1008.4
20260509214025 85 76 7.8 12.2 0.00 0.00 0.00 48 1008.4
20260509213525 85 91 8.7 12.2 0.00 0.00 0.00 50 1008.5
20260509212525 85 84 7.8 11.3 0.00 0.00 0.00 50 1008.6
20260509212026 85 111 8.7 11.3 0.00 0.00 0.00 51 1008.7
20260509211525 85 83 6.1 9.6 0.00 0.00 0.00 49 1008.8
20260509211025 85 89 2.6 12.2 0.00 0.00 0.00 48 1008.8
20260509210525 85 117 7.0 12.2 0.00 0.00 0.00 48 1008.9
20260509210025 86 86 10.4 10.4 0.00 0.00 0.00 50 1008.9
20260509205525 85 137 2.6 9.6 0.00 0.00 0.00 49 1009.0
20260509205025 85 82 7.0 11.3 0.00 0.00 0.00 48 1009.0
20260509204525 85 78 7.8 13.9 0.00 0.00 0.00 50 1009.1
20260509203525 86 99 7.0 9.6 0.00 0.00 0.00 48 1009.2
20260509203025 85 66 4.3 14.8 0.00 0.00 0.00 47 1009.2
20260509202527 85 57 11.3 14.8 0.00 0.00 0.00 48 1009.2
20260509202025 86 83 8.7 9.6 0.00 0.00 0.00 47 1009.2
20260509201525 85 103 7.0 8.7 0.00 0.00 0.00 42 1009.3
20260509201025 85 298 3.5 11.3 0.00 0.00 0.00 41 1009.3
20260509200525 86 60 7.8 11.3 0.00 0.00 0.00 44 1009.4
20260509200025 85 47 5.2 14.8 0.00 0.00 0.00 44 1009.4
20260509195525 85 58 10.4 14.8 0.00 0.00 0.00 42 1009.6
20260509195025 85 22 8.7 9.6 0.00 0.00 0.00 44 1009.6
20260509194525 85 6 2.6 10.4 0.00 0.00 0.00 45 1009.7
20260509194025 85 107 7.8 13.0 0.00 0.00 0.00 45 1009.8
20260509193025 84 58 4.3 12.2 0.00 0.00 0.00 49 1009.9
20260509192525 85 39 3.5 8.7 0.00 0.00 0.00 46 1010.0
20260509192025 85 265 3.5 6.1 0.00 0.00 0.00 45 1010.0
20260509191525 84 343 3.5 13.0 0.00 0.00 0.00 46 1010.1
20260509191025 84 63 6.1 13.0 0.00 0.00 0.00 47 1010.2
20260509190025 84 47 7.8 13.0 0.00 0.00 0.00 47 1010.2
20260509185525 84 43 12.2 13.0 0.00 0.00 0.00 51 1010.1
20260509185025 84 62 6.1 10.4 0.00 0.00 0.00 50 1010.2
20260509184525 84 78 2.6 6.1 0.00 0.00 0.00 55 1010.2
20260509184025 83 89 4.3 10.4 0.00 0.00 0.00 54 1010.3
20260509183026 83 15 8.7 12.2 0.00 0.00 0.00 53 1010.4
20260509182525 82 23 9.6 12.2 0.00 0.00 0.00 53 1010.4
20260509182025 82 46 6.1 12.2 0.00 0.00 0.00 58 1010.4
20260509181527 82 69 7.8 7.8 0.00 0.00 0.00 59 1010.5
20260509181025 82 58 7.8 8.7 0.00 0.00 0.00 59 1010.5
20260509180527 82 76 6.1 11.3 0.00 0.00 0.00 60 1010.6
20260509180025 81 50 5.2 11.3 0.00 0.00 0.00 58 1010.6
20260509175525 81 89 1.7 8.7 0.00 0.00 0.00 62 1010.7
20260509175025 81 36 7.8 8.7 0.00 0.00 0.00 60 1010.8
20260509174526 81 48 6.1 8.7 0.00 0.00 0.00 60 1010.9
20260509174025 81 320 5.2 8.7 0.00 0.00 0.00 59 1010.9
20260509173525 81 306 5.2 8.7 0.00 0.00 0.00 59 1011.0
20260509172526 80 17 7.8 11.3 0.00 0.00 0.00 60 1011.0
20260509172025 81 17 1.7 8.7 0.00 0.00 0.00 59 1011.1
20260509171025 80 359 11.3 11.3 0.00 0.00 0.00 59 1011.1
20260509170525 80 54 3.5 8.7 0.00 0.00 0.00 60 1011.2
20260509170025 80 272 3.5 8.7 0.00 0.00 0.00 61 1011.2
20260509165525 80 330 3.5 9.6 0.00 0.00 0.00 60 1011.2
20260509165025 79 24 5.2 9.6 0.00 0.00 0.00 61 1011.3
20260509164525 80 353 9.6 9.6 0.00 0.00 0.00 60 1011.3
20260509164025 80 345 3.5 8.7 0.00 0.00 0.00 59 1011.4
20260509163525 79 328 4.3 8.7 0.00 0.00 0.00 61 1011.4
20260509163025 80 7 6.1 8.7 0.00 0.00 0.00 58 1011.4
20260509162525 79 346 4.3 9.6 0.00 0.00 0.00 59 1011.4
20260509162025 79 356 4.3 9.6 0.00 0.00 0.00 61 1011.4
20260509161525 79 351 7.8 9.6 0.00 0.00 0.00 59 1011.4
20260509160525 78 275 4.3 8.7 0.00 0.00 0.00 61 1011.5
20260509155526 78 328 6.1 7.8 0.00 0.00 0.00 62 1011.4
20260509155025 78 287 6.1 7.8 0.00 0.00 0.00 62 1011.4
20260509154527 78 310 6.1 11.3 0.00 0.00 0.00 63 1011.3
20260509153526 77 270 7.8 9.6 0.00 0.00 0.00 63 1011.3
20260509153026 77 281 7.8 9.6 0.00 0.00 0.00 65 1011.2
20260509152526 77 299 3.5 7.8 0.00 0.00 0.00 65 1011.3
20260509152026 76 294 3.5 8.7 0.00 0.00 0.00 66 1011.3
20260509151526 76 290 3.5 8.7 0.00 0.00 0.00 67 1011.3
20260509151025 76 300 8.7 8.7 0.00 0.00 0.00 69 1011.3
20260509150525 76 272 5.2 8.7 0.00 0.00 0.00 67 1011.3
20260509150025 76 295 7.8 8.7 0.00 0.00 0.00 68 1011.4
20260509145526 76 300 5.2 8.7 0.00 0.00 0.00 69 1011.4
20260509145026 75 313 7.0 8.7 0.00 0.00 0.00 69 1011.4
20260509144526 75 317 5.2 8.7 0.00 0.00 0.00 72 1011.4
20260509144025 75 307 7.8 9.6 0.00 0.00 0.00 72 1011.3
20260509143525 75 309 7.0 9.6 0.00 0.00 0.00 72 1011.3
20260509143026 75 322 7.0 8.7 0.00 0.00 0.00 73 1011.3
20260509142525 75 308 5.2 9.6 0.00 0.00 0.00 74 1011.3
20260509141525 75 297 7.0 8.7 0.00 0.00 0.00 74 1011.3
20260509140025 73 303 7.0 8.7 0.00 0.00 0.00 78 1011.3
20260509135526 73 304 6.1 8.7 0.00 0.00 0.00 81 1011.3
20260509134526 71 301 4.3 7.0 0.00 0.00 0.00 86 1011.4
20260509134025 71 289 6.1 7.0 0.00 0.00 0.00 87 1011.4
20260509133526 71 306 6.1 7.0 0.00 0.00 0.00 88 1011.4
20260509133025 70 333 7.0 7.0 0.00 0.00 0.00 87 1011.4
20260509132525 70 324 6.1 7.8 0.00 0.00 0.00 88 1011.4
20260509132027 69 332 6.1 7.8 0.00 0.00 0.00 88 1011.3
20260509131525 69 340 4.3 7.0 0.00 0.00 0.00 88 1011.3
20260509131025 69 340 6.1 7.0 0.00 0.00 0.00 88 1011.3
20260509130525 69 349 6.1 6.1 0.00 0.00 0.00 89 1011.3
20260509130026 68 340 4.3 7.8 0.00 0.00 0.00 90 1011.3
20260509125527 68 340 4.3 7.8 0.00 0.00 0.00 91 1011.3
20260509125025 67 346 5.2 6.1 0.00 0.00 0.00 91 1011.2
20260509124526 67 337 4.3 5.2 0.00 0.00 0.00 92 1011.3
20260509124026 67 321 4.3 6.1 0.00 0.00 0.00 93 1011.3
20260509123525 66 334 4.3 6.1 0.00 0.00 0.00 94 1011.2
20260509122526 66 274 4.3 6.1 0.00 0.00 0.00 96 1011.2
20260509121026 66 287 3.5 5.2 0.00 0.00 0.00 97 1011.2
20260509120026 66 338 2.6 6.1 0.00 0.00 0.00 97 1011.1
20260509115525 66 279 4.3 6.1 0.00 0.00 0.00 98 1011.1
20260509115025 66 281 5.2 7.8 0.00 0.00 0.00 98 1011.0
20260509114526 67 293 4.3 7.8 0.00 0.05 0.00 98 1011.0
20260509114025 67 291 5.2 6.1 0.00 0.10 0.00 98 1010.9
20260509113025 67 273 5.2 7.8 0.00 0.21 0.00 98 1010.7
20260509112526 66 282 6.1 7.0 0.00 0.30 0.00 99 1010.7
20260509112026 66 294 6.1 7.0 0.00 0.35 0.00 99 1010.7
20260509111526 66 264 5.2 7.8 0.00 0.36 0.00 99 1010.7
20260509111025 66 261 6.1 7.8 0.00 0.36 0.00 98 1010.5
20260509110525 66 268 7.0 7.8 0.00 0.36 0.00 98 1010.4
20260509110025 66 260 7.0 7.0 0.00 0.36 0.00 98 1010.3
20260509105526 66 359 2.6 7.8 0.00 0.36 0.00 98 1010.0
20260509105026 66 5 6.1 8.7 0.00 0.36 0.00 97 1009.8
20260509104527 67 21 7.0 9.6 0.00 0.36 0.00 97 1009.8
20260509104025 67 15 8.7 9.6 0.00 0.36 0.00 97 1009.8
20260509103526 67 15 8.7 9.6 0.00 0.36 0.00 97 1009.9
20260509103026 67 1 8.7 9.6 0.00 0.36 0.00 98 1009.9
20260509102525 67 18 7.8 9.6 0.00 0.36 0.00 98 1009.8
20260509102025 67 8 6.1 7.8 0.00 0.36 0.00 98 1009.9
20260509101526 67 9 4.3 6.1 0.00 0.36 0.00 98 1010.0
20260509101026 67 15 4.3 7.8 0.00 0.36 0.00 98 1010.0
20260509100526 67 21 4.3 7.8 0.00 0.36 0.00 98 1009.7
20260509100025 67 1 7.0 9.6 0.00 0.36 0.00 98 1009.5
20260509095525 67 12 8.7 9.6 0.00 0.36 0.00 98 1009.2
20260509095026 67 6 8.7 10.4 0.00 0.36 0.00 97 1009.1
20260509094526 67 4 6.1 10.4 0.00 0.42 0.00 97 1009.0
20260509094026 67 11 8.7 10.4 0.00 0.42 0.00 97 1009.0
20260509093525 67 7 7.8 9.6 0.00 0.42 0.00 97 1008.9
20260509093025 67 10 7.0 9.6 0.00 0.42 0.00 96 1008.7
20260509091526 68 8 7.0 11.3 0.00 0.42 0.00 95 1008.7
20260509091026 68 25 7.8 12.2 0.00 0.42 0.00 95 1008.5
20260509090526 68 28 8.7 14.8 0.00 0.42 0.00 95 1008.4
20260509090026 68 26 10.4 18.2 0.00 0.42 0.00 94 1008.5